CW7104 Weather Reports


time (UTC)temp
C
wind
direction
speed
KPH
gust
KPH
rain 1hr
cm
rain 24hr
cm
rain mn
cm
humidity
%
barometer
mb
20260904134903 27 174 0.0 0.0 0.00 0.00 0.00 78 1015.5
20260904134404 26 174 0.0 0.0 0.00 0.00 0.00 79 1015.6
20260904133904 26 174 0.0 0.0 0.00 0.00 0.00 80 1015.6
20260904133404 26 174 0.0 0.0 0.00 0.00 0.00 81 1015.5
20260904132904 26 174 0.0 0.0 0.00 0.00 0.00 81 1015.5
20260904131904 25 142 0.0 0.0 0.00 0.00 0.00 82 1015.5
20260904131404 25 182 0.0 0.0 0.00 0.00 0.00 82 1015.5
20260904130903 24 182 0.0 0.0 0.00 0.00 0.00 82 1015.4
20260904125904 24 206 0.0 0.0 0.00 0.00 0.00 82 1015.4
20260904125404 23 206 0.0 0.0 0.00 0.00 0.00 82 1015.4
20260904124904 23 206 0.0 0.0 0.00 0.00 0.00 82 1015.4
20260904123903 23 206 0.0 0.0 0.00 0.00 0.00 82 1015.4
20260904123403 23 206 0.0 0.0 0.00 0.00 0.00 82 1015.4
20260904122904 23 206 0.0 0.0 0.00 0.00 0.00 82 1015.5
20260904122404 23 206 0.0 0.0 0.00 0.00 0.00 82 1015.4
20260904121904 23 206 0.0 0.0 0.00 0.00 0.00 82 1015.3
20260904121404 22 206 0.0 0.0 0.00 0.00 0.00 82 1015.3
20260904120904 22 206 0.0 0.0 0.00 0.00 0.00 82 1015.2
20260904120404 22 206 0.0 0.0 0.00 0.00 0.00 82 1015.2
20260904115903 22 206 0.0 0.0 0.00 0.00 0.00 82 1015.2
20260904115403 22 206 0.0 0.0 0.00 0.00 0.00 82 1015.2
20260904114904 22 206 0.0 0.0 0.00 0.00 0.00 82 1015.2
20260904114404 22 206 0.0 0.0 0.00 0.00 0.00 82 1015.1
20260904113403 22 204 0.0 0.0 0.00 0.00 0.00 82 1014.9
20260904112904 22 203 0.0 0.0 0.00 0.00 0.00 82 1014.9
20260904112404 22 203 0.0 0.0 0.00 0.00 0.00 82 1014.7
20260904111904 22 203 0.0 0.0 0.00 0.00 0.00 82 1014.7
20260904111404 22 203 0.0 0.0 0.00 0.00 0.00 82 1014.6
20260904110903 22 203 0.0 0.0 0.00 0.00 0.00 82 1014.5
20260904105904 22 203 0.0 0.0 0.00 0.00 0.00 82 1014.4
20260904105404 22 203 0.0 0.0 0.00 0.00 0.00 82 1014.4
20260904104903 22 203 0.0 0.0 0.00 0.00 0.00 82 1014.4
20260904104404 22 203 0.0 0.0 0.00 0.00 0.00 82 1014.4
20260904103904 22 203 0.0 0.0 0.00 0.00 0.00 82 1014.4
20260904103404 22 203 0.0 0.0 0.00 0.00 0.00 82 1014.3
20260904102903 22 203 0.0 0.0 0.00 0.00 0.00 82 1014.3
20260904102403 22 203 0.0 0.0 0.00 0.00 0.00 82 1014.2
20260904101904 22 203 0.0 0.0 0.00 0.00 0.00 82 1014.3
20260904101404 22 203 0.0 0.0 0.00 0.00 0.00 82 1014.4
20260904100903 22 203 0.0 0.0 0.00 0.00 0.00 82 1014.3
20260904100403 22 203 0.0 0.0 0.00 0.00 0.00 82 1014.4
20260904095904 22 204 0.0 0.0 0.00 0.00 0.00 82 1014.2
20260904095403 22 203 0.0 0.0 0.00 0.00 0.00 82 1014.3
20260904094904 22 203 0.0 0.0 0.00 0.00 0.00 82 1014.2
20260904094404 22 203 0.0 0.0 0.00 0.00 0.00 82 1014.3
20260904093403 22 203 0.0 0.0 0.00 0.00 0.00 82 1014.3
20260904092404 22 204 0.0 0.0 0.00 0.00 0.00 82 1014.2
20260904091904 22 203 0.0 0.0 0.00 0.00 0.00 81 1014.1
20260904091403 22 204 0.0 0.0 0.00 0.00 0.00 81 1014.1
20260904090905 22 204 0.0 0.0 0.00 0.00 0.00 81 1014.0
20260904090405 22 204 0.0 0.0 0.00 0.00 0.00 81 1014.0
20260904085906 22 204 0.0 0.0 0.00 0.00 0.00 81 1014.0
20260904085405 22 204 0.0 0.0 0.00 0.00 0.00 81 1014.1
20260904084905 22 204 0.0 0.0 0.00 0.00 0.00 81 1014.0
20260904084406 22 204 0.0 0.0 0.00 0.00 0.00 81 1013.9
20260904083906 23 203 0.0 0.0 0.00 0.00 0.00 81 1013.9
20260904083405 23 204 0.0 0.0 0.00 0.00 0.00 81 1013.9
20260904082405 23 204 0.0 0.0 0.00 0.00 0.00 81 1013.9
20260904081905 23 204 0.0 0.0 0.00 0.00 0.00 81 1013.9
20260904080905 23 204 0.0 0.0 0.00 0.00 0.00 81 1013.8
20260904075905 23 204 0.0 0.0 0.00 0.00 0.00 81 1013.7
20260904075405 23 204 0.0 0.0 0.00 0.00 0.00 81 1013.7
20260904074905 23 204 0.0 0.0 0.00 0.00 0.00 81 1013.7
20260904074405 23 204 0.0 0.0 0.00 0.00 0.00 80 1013.7
20260904073905 23 204 0.0 0.0 0.00 0.00 0.00 80 1013.8
20260904073405 23 204 0.0 0.0 0.00 0.00 0.00 80 1013.8
20260904072405 23 204 0.0 0.0 0.00 0.00 0.00 81 1013.7
20260904071405 23 204 0.0 0.0 0.00 0.00 0.00 80 1013.8
20260904070905 23 204 0.0 0.0 0.00 0.00 0.00 80 1013.8
20260904070405 23 204 0.0 0.0 0.00 0.00 0.00 81 1013.8
20260904065905 23 204 0.0 0.0 0.00 0.00 0.00 80 1013.9
20260904065405 23 203 0.0 0.0 0.00 0.00 0.00 80 1013.9
20260904064905 23 204 0.0 0.0 0.00 0.00 0.00 80 1013.9
20260904064405 23 204 0.0 0.0 0.00 0.00 0.00 80 1014.0
20260904063905 23 204 0.0 0.0 0.00 0.00 0.00 80 1013.9
20260904063405 23 204 0.0 0.0 0.00 0.00 0.00 80 1013.9
20260904062905 23 204 0.0 0.0 0.00 0.00 0.00 80 1014.0
20260904062405 23 204 0.0 0.0 0.00 0.00 0.00 79 1014.0
20260904061906 23 204 0.0 0.0 0.00 0.00 0.00 80 1014.0
20260904061405 24 204 0.0 0.0 0.00 0.00 0.00 80 1013.9
20260904060905 24 204 0.0 0.0 0.00 0.00 0.00 80 1014.0
20260904060405 24 204 0.0 0.0 0.00 0.00 0.00 79 1014.0
20260904055905 24 204 0.0 0.0 0.00 0.00 0.00 79 1014.0
20260904055405 24 204 0.0 0.0 0.00 0.00 0.00 79 1014.1
20260904054905 24 204 0.0 0.0 0.00 0.00 0.00 79 1014.1
20260904053905 24 204 0.0 0.0 0.00 0.00 0.00 78 1014.1
20260904053405 24 204 0.0 0.0 0.00 0.00 0.00 78 1014.1
20260904052905 25 204 0.0 0.0 0.00 0.00 0.00 78 1014.1
20260904051904 25 203 0.0 0.0 0.00 0.00 0.00 78 1014.1
20260904051405 25 204 0.0 0.0 0.00 0.00 0.00 77 1014.1
20260904050905 25 204 0.0 0.0 0.00 0.00 0.00 77 1014.0
20260904050405 25 204 0.0 0.0 0.00 0.00 0.00 76 1014.0
20260904045905 25 204 0.0 0.0 0.00 0.00 0.00 76 1014.0
20260904045405 25 204 0.0 0.0 0.00 0.00 0.00 76 1014.0
20260904044405 26 203 0.0 0.0 0.00 0.00 0.00 75 1014.0
20260904043905 26 204 0.0 0.0 0.00 0.00 0.00 75 1013.9
20260904043405 26 204 0.0 0.0 0.00 0.00 0.00 75 1013.9
20260904042905 26 204 0.0 0.0 0.00 0.00 0.00 76 1013.9
20260904042405 26 204 0.0 0.0 0.00 0.00 0.00 76 1013.9
20260904041405 26 204 0.0 0.0 0.00 0.00 0.00 76 1013.9
20260904040905 26 204 0.0 0.0 0.00 0.00 0.00 76 1013.9
20260904034905 26 203 0.0 0.0 0.00 0.00 0.00 75 1014.1
20260904034405 26 204 0.0 0.0 0.00 0.00 0.00 75 1014.1
20260904033905 26 204 0.0 0.0 0.00 0.00 0.00 74 1014.1
20260904033405 26 203 0.0 0.0 0.00 0.00 0.00 74 1014.1
20260904032905 26 204 0.0 0.0 0.00 0.00 0.00 74 1014.1
20260904032405 26 204 0.0 0.0 0.00 0.00 0.00 73 1014.2
20260904030905 26 204 0.0 0.0 0.00 0.00 0.00 72 1014.2
20260904030404 26 204 0.0 0.0 0.00 0.00 0.00 72 1014.3
20260904025905 27 204 0.0 0.0 0.00 0.00 0.00 72 1014.3
20260904025405 27 204 0.0 0.0 0.00 0.00 0.00 71 1014.3
20260904024905 27 204 0.0 0.0 0.00 0.00 0.00 71 1014.3
20260904024405 27 204 0.0 0.0 0.00 0.00 0.00 70 1014.2
20260904023405 27 204 0.0 0.0 0.00 0.00 0.00 69 1014.1
20260904022905 28 204 0.0 0.0 0.00 0.00 0.00 67 1014.0
20260904022405 28 204 0.0 0.0 0.00 0.00 0.00 67 1014.0
20260904021905 28 204 0.0 0.0 0.00 0.00 0.00 67 1014.0
20260904021405 28 204 0.0 0.0 0.00 0.00 0.00 66 1013.9
20260904020904 28 204 0.0 0.0 0.00 0.00 0.00 66 1014.0
20260904020405 28 204 0.0 0.0 0.00 0.00 0.00 65 1013.9
20260904015905 28 204 0.0 0.0 0.00 0.00 0.00 64 1013.9
20260904015404 29 204 0.0 0.0 0.00 0.00 0.00 64 1013.8
20260904014905 29 204 0.0 0.0 0.00 0.00 0.00 63 1013.8
20260904014405 29 204 0.0 0.0 0.00 0.00 0.00 62 1013.7
20260904013905 29 204 0.0 0.0 0.00 0.00 0.00 62 1013.8
20260904013405 29 204 0.0 0.0 0.00 0.00 0.00 61 1013.7
20260904012905 30 204 0.0 0.0 0.00 0.00 0.00 61 1013.7
20260904012405 30 204 0.0 0.0 0.00 0.00 0.00 60 1013.7
20260904011405 30 204 0.0 0.0 0.00 0.00 0.00 59 1013.6
20260904010904 30 204 0.0 0.0 0.00 0.00 0.00 58 1013.5
20260904010404 31 204 0.0 0.0 0.00 0.00 0.00 58 1013.5
20260904005905 31 204 0.0 0.0 0.00 0.00 0.00 57 1013.5
20260904005405 31 204 0.0 0.0 0.00 0.00 0.00 56 1013.4
20260904004405 31 204 0.0 0.0 0.00 0.00 0.00 55 1013.4
20260904003905 32 204 0.0 0.0 0.00 0.00 0.00 54 1013.3
20260904003405 32 204 0.0 0.0 0.00 0.00 0.00 53 1013.3
20260904002904 32 204 0.0 0.0 0.00 0.00 0.00 53 1013.2
20260904002404 32 204 0.0 0.0 0.00 0.00 0.00 53 1013.2
20260904001904 32 204 0.0 0.0 0.00 0.00 0.00 52 1013.1
20260903235905 33 204 0.0 0.0 0.00 0.00 0.00 49 1013.1
20260903235405 34 204 0.0 0.0 0.00 0.00 0.00 49 1013.0
20260903234904 34 198 0.0 0.0 0.00 0.00 0.00 48 1013.0
20260903234404 35 198 0.0 0.0 0.00 0.00 0.00 47 1013.0
20260903233905 35 207 0.0 0.0 0.00 0.00 0.00 46 1012.9
20260903233405 35 207 0.0 0.0 0.00 0.00 0.00 45 1012.9
20260903232905 35 209 0.0 0.0 0.00 0.00 0.00 45 1012.9
20260903232404 35 124 0.0 0.0 0.00 0.00 0.00 45 1012.9
20260903231905 35 223 0.0 0.0 0.00 0.00 0.00 45 1012.9
20260903231405 35 208 0.0 0.0 0.00 0.00 0.00 45 1012.8
20260903230905 35 211 0.0 0.0 0.00 0.00 0.00 45 1012.9
20260903230404 35 211 0.0 0.0 0.00 0.00 0.00 44 1012.8
20260903225405 35 219 1.6 8.0 0.00 0.00 0.00 43 1012.8
20260903224904 36 182 0.0 11.3 0.00 0.00 0.00 42 1012.8
20260903224404 36 172 0.0 0.0 0.00 0.00 0.00 42 1012.8
20260903223904 36 225 0.0 1.6 0.00 0.00 0.00 41 1012.8
20260903222904 37 232 3.2 11.3 0.00 0.00 0.00 40 1012.8
20260903222404 37 227 0.0 0.0 0.00 0.00 0.00 41 1012.8
20260903221405 37 194 0.0 0.0 0.00 0.00 0.00 40 1012.9
20260903220904 37 191 0.0 0.0 0.00 0.00 0.00 41 1012.9
20260903215905 36 196 0.0 0.0 0.00 0.00 0.00 40 1013.0
20260903214904 36 194 0.0 0.0 0.00 0.00 0.00 40 1013.1
20260903214405 36 148 0.0 0.0 0.00 0.00 0.00 40 1013.1
20260903213905 36 202 0.0 0.0 0.00 0.00 0.00 39 1013.1
20260903212904 37 213 1.6 9.7 0.00 0.00 0.00 37 1013.1
20260903212405 38 193 3.2 9.7 0.00 0.00 0.00 37 1013.1
20260903211904 37 148 0.0 8.0 0.00 0.00 0.00 37 1013.1
20260903211405 37 152 0.0 9.7 0.00 0.00 0.00 38 1013.2
20260903210404 37 199 0.0 0.0 0.00 0.00 0.00 37 1013.4
20260903205904 37 199 0.0 0.0 0.00 0.00 0.00 37 1013.3
20260903205405 37 154 3.2 9.7 0.00 0.00 0.00 38 1013.5
20260903204904 37 195 4.8 14.5 0.00 0.00 0.00 37 1013.5
20260903204404 37 208 3.2 9.7 0.00 0.00 0.00 38 1013.5
20260903203904 36 195 0.0 0.0 0.00 0.00 0.00 39 1013.6
20260903203404 36 206 0.0 0.0 0.00 0.00 0.00 38 1013.6
20260903202904 36 184 0.0 0.0 0.00 0.00 0.00 39 1013.6
20260903202404 37 247 0.0 0.0 0.00 0.00 0.00 37 1013.7
20260903201904 37 212 0.0 0.0 0.00 0.00 0.00 37 1013.7
20260903201404 37 163 1.6 9.7 0.00 0.00 0.00 37 1013.7
20260903200904 38 212 0.0 3.2 0.00 0.00 0.00 37 1013.7
20260903200405 38 207 4.8 16.1 0.00 0.00 0.00 38 1013.7
20260903195404 37 208 0.0 8.0 0.00 0.00 0.00 40 1013.9
20260903194905 37 197 3.2 12.9 0.00 0.00 0.00 39 1013.9
20260903194405 37 191 1.6 9.7 0.00 0.00 0.00 39 1013.9
20260903193905 37 186 0.0 0.0 0.00 0.00 0.00 40 1013.9
20260903192404 37 226 0.0 3.2 0.00 0.00 0.00 39 1014.1
20260903191904 37 222 3.2 12.9 0.00 0.00 0.00 39 1014.1
20260903191404 37 174 0.0 0.0 0.00 0.00 0.00 39 1014.1
20260903190904 37 236 0.0 0.0 0.00 0.00 0.00 40 1014.1
20260903190404 37 248 0.0 0.0 0.00 0.00 0.00 41 1014.2
20260903185905 36 180 0.0 0.0 0.00 0.00 0.00 45 1014.2
20260903185404 36 180 0.0 4.8 0.00 0.00 0.00 44 1014.3
20260903184904 36 272 3.2 9.7 0.00 0.00 0.00 43 1014.4
20260903184404 36 57 0.0 0.0 0.00 0.00 0.00 42 1014.4
20260903183904 36 241 0.0 0.0 0.00 0.00 0.00 44 1014.5
20260903183404 36 241 0.0 0.0 0.00 0.00 0.00 42 1014.4
20260903182405 37 225 1.6 37.0 0.00 0.00 0.00 41 1014.6
20260903180904 36 228 3.2 12.9 0.00 0.00 0.00 42 1014.6
20260903175904 36 242 1.6 11.3 0.00 0.00 0.00 42 1014.7
20260903174904 36 215 0.0 4.8 0.00 0.00 0.00 46 1014.9
20260903174404 35 211 1.6 8.0 0.00 0.00 0.00 46 1015.0
20260903173904 35 244 0.0 0.0 0.00 0.00 0.00 47 1015.1
20260903173404 35 224 0.0 0.0 0.00 0.00 0.00 44 1015.1
20260903172405 36 264 0.0 0.0 0.00 0.00 0.00 44 1015.2
20260903171404 36 241 0.0 9.7 0.00 0.00 0.00 42 1015.3
20260903170904 36 267 0.0 8.0 0.00 0.00 0.00 42 1015.3
20260903170405 36 227 4.8 12.9 0.00 0.00 0.00 44 1015.4
20260903165904 36 138 3.2 12.9 0.00 0.00 0.00 44 1015.4
20260903165404 36 177 1.6 12.9 0.00 0.00 0.00 46 1015.5
20260903164904 36 244 0.0 8.0 0.00 0.00 0.00 47 1015.5
20260903164404 36 252 0.0 0.0 0.00 0.00 0.00 46 1015.6
20260903162904 35 267 4.8 12.9 0.00 0.00 0.00 50 1015.8
20260903162404 35 247 0.0 0.0 0.00 0.00 0.00 50 1015.8
20260903161404 35 228 3.2 11.3 0.00 0.00 0.00 49 1015.9
20260903160904 35 276 0.0 0.0 0.00 0.00 0.00 50 1016.0
20260903155904 34 255 0.0 0.0 0.00 0.00 0.00 52 1016.0
20260903155404 34 234 3.2 11.3 0.00 0.00 0.00 53 1016.0
20260903154904 34 255 0.0 11.3 0.00 0.00 0.00 54 1016.0
20260903153404 33 258 1.6 11.3 0.00 0.00 0.00 55 1016.0
20260903152904 33 266 4.8 12.9 0.00 0.00 0.00 53 1016.1
20260903152405 33 250 4.8 12.9 0.00 0.00 0.00 55 1016.1
20260903150904 32 209 0.0 0.0 0.00 0.00 0.00 58 1016.0
20260903150404 32 200 0.0 0.0 0.00 0.00 0.00 61 1016.1
20260903145904 32 202 0.0 0.0 0.00 0.00 0.00 61 1016.1
20260903145404 31 215 0.0 0.0 0.00 0.00 0.00 63 1016.1
20260903144904 31 215 0.0 0.0 0.00 0.00 0.00 65 1016.1
20260903143904 30 231 0.0 0.0 0.00 0.00 0.00 66 1016.1
20260903143404 30 212 0.0 0.0 0.00 0.00 0.00 67 1016.1
20260903142904 29 156 0.0 0.0 0.00 0.00 0.00 69 1016.1
20260903141903 28 215 0.0 0.0 0.00 0.00 0.00 70 1016.2
20260903141404 28 199 0.0 0.0 0.00 0.00 0.00 71 1016.2
20260903140904 28 233 0.0 1.6 0.00 0.00 0.00 72 1016.2
20260903140404 27 210 0.0 0.0 0.00 0.00 0.00 73 1016.2
20260903135904 27 163 0.0 0.0 0.00 0.00 0.00 75 1016.2
20260903135404 27 163 0.0 0.0 0.00 0.00 0.00 75 1016.2